カタログに戻る

STARLINK-37063

運用中通信VLEO
NORAD 68079·PAYLOAD·🇺🇸 United States

打ち上げ Mar 4, 2026 から Vandenberg Space Force Base

Loading…

次のパス (今後24時間)

TLE

最新Source: CelesTrak SupGP

元期: Sep 15, 2026, 04:04 UTC

1 68079C 26042L   26258.16993056  .00070624  00000+0  20865-2 0  2585
2 68079  53.1604  14.6454 0001303  88.0585 183.5588 15.34357720    12

AllMySatでSTARLINK-37063をリアルタイム追跡

Download on the App Store